Location: Kitchener-Waterloo
(43.4500°N, 80.5000°W)
Time: 15:53:18
(UTC-04:00)

ISS - All Passes

Search period start: 30 September 2014 00:00
Search period end: 10 October 2014 00:00
Orbit: 413 x 416 km, 51.6° (Epoch: 30 September)

Date Brightness Start Highest point End Pass type
(mag) Time Alt. Az. Time Alt. Az. Time Alt. Az.
30 Sep - 00:00:00 24° ENE 23:59:45 28° NE 00:01:26 10° ENE night (unlit)
30 Sep - 01:32:21 10° WNW 01:35:08 24° NNW 01:37:56 10° NE night (unlit)
30 Sep - 03:10:02 10° NW 03:12:37 20° N 03:15:12 10° ENE night (unlit)
30 Sep - 04:46:39 10° NW 04:49:53 48° NNE 04:53:07 10° ESE visible
30 Sep - 06:23:38 10° W 06:26:26 25° SW 06:29:12 10° SSE visible
30 Sep - 23:05:47 10° SW 23:09:03 55° SE 23:12:19 10° ENE night (unlit)
01 Oct - 00:42:54 10° W 00:45:54 30° NNW 00:48:54 10° NE night (unlit)
01 Oct - 02:20:48 10° NW 02:23:19 19° N 02:25:50 10° NE night (unlit)
01 Oct - 03:57:37 10° NW 04:00:42 34° NNE 04:03:46 10° E visible
01 Oct - 05:34:17 10° WNW 05:37:28 43° SW 05:40:37 10° SSE visible
01 Oct - 22:17:03 10° SSW 22:20:02 31° SE 22:23:02 10° ENE night (unlit)
01 Oct - 23:53:30 10° W 23:56:40 40° NNW 23:59:51 10° NE night (unlit)
02 Oct - 01:31:27 10° NW 01:34:00 20° N 01:36:32 10° NE night (unlit)
02 Oct - 03:08:34 10° NW 03:11:27 26° NNE 03:14:20 10° ENE night (unlit)
02 Oct - 04:45:05 10° WNW 04:48:25 75° SW 04:51:43 10° SE visible
02 Oct - 21:28:39 10° S 21:31:04 19° SE 21:33:29 10° E night (unlit)
02 Oct - 23:04:11 10° WSW 23:07:29 61° NNW 23:10:47 10° NE night (unlit)
03 Oct - 00:41:59 10° WNW 00:44:39 22° N 00:47:19 10° NE night (unlit)
03 Oct - 02:19:27 10° NW 02:22:08 22° N 02:24:50 10° ENE night (unlit)
03 Oct - 03:55:58 10° NW 03:59:17 67° NNE 04:02:35 10° ESE night (unlit)
03 Oct - 05:33:25 10° W 05:35:39 17° SW 05:37:52 10° S visible
03 Oct - 20:41:12 10° SSE 20:42:08 11° SE 20:43:04 10° ESE visible
03 Oct - 22:14:59 10° SW 22:18:19 83° SE 22:21:39 10° ENE night (unlit)
03 Oct - 23:52:28 10° WNW 23:55:19 25° NNW 23:58:09 10° NE night (unlit)
04 Oct - 01:30:13 10° NW 01:32:47 20° N 01:35:20 10° NE night (unlit)
04 Oct - 03:06:51 10° NW 03:10:04 43° NNE 03:13:16 10° E night (unlit)
04 Oct - 04:43:45 10° WNW 04:46:39 28° SW 04:49:33 10° SSE night (unlit)
04 Oct - 21:25:59 10° SW 21:29:11 48° SE 21:32:25 10° ENE visible
04 Oct - 23:02:57 10° W 23:05:59 32° NNW 23:09:02 10° NE night (unlit)
05 Oct - 00:40:52 10° NW 00:43:23 19° N 00:45:53 10° NE night (unlit)
05 Oct - 02:17:45 10° NW 02:20:47 31° NNE 02:23:48 10° E night (unlit)
05 Oct - 03:54:21 10° WNW 03:57:35 49° SW 04:00:48 10° SE night (unlit)
05 Oct - 20:37:13 10° SSW 20:40:06 28° SE 20:43:00 10° ENE visible
05 Oct - 22:13:28 10° W 22:16:41 44° NNW 22:19:54 10° NE night (unlit)
05 Oct - 23:51:24 10° NW 23:53:58 20° N 23:56:31 10° NE night (unlit)
06 Oct - 01:28:35 10° NW 01:31:25 25° NNE 01:34:15 10° ENE night (unlit)
06 Oct - 03:05:05 10° WNW 03:08:26 85° SSW 03:11:45 10° SE night (unlit)
06 Oct - 04:43:34 10° WSW 04:44:37 11° SW 04:45:40 10° SSW night (unlit)
06 Oct - 19:48:52 10° S 19:51:03 17° SE 19:53:14 10° E visible
06 Oct - 21:24:05 10° WSW 21:27:24 69° NNW 21:30:44 10° NE visible
06 Oct - 23:01:49 10° WNW 23:04:32 22° N 23:07:14 10° NE night (unlit)
07 Oct - 00:39:21 10° NW 00:42:01 21° N 00:44:40 10° ENE night (unlit)
07 Oct - 02:15:53 10° NW 02:19:11 60° NNE 02:22:28 10° ESE night (unlit)
07 Oct - 03:53:09 10° W 03:55:36 19° SW 03:58:03 10° S night (unlit)
07 Oct - 20:34:51 10° SW 20:38:10 73° SE 20:41:29 10° ENE visible
07 Oct - 22:12:12 10° WNW 22:15:06 27° NNW 22:18:00 10° NE visible
07 Oct - 23:50:01 10° NW 23:52:33 20° N 23:55:05 10° NE night (unlit)
08 Oct - 01:26:42 10° NW 01:29:52 40° NNE 01:33:01 10° E night (unlit)
08 Oct - 03:03:29 10° WNW 03:06:30 32° SW 03:09:31 10° SSE night (unlit)
08 Oct - 19:45:48 10° SSW 19:48:57 41° SE 19:52:07 10° ENE visible
08 Oct - 21:22:36 10° W 21:25:41 34° NNW 21:28:47 10° NE visible
08 Oct - 23:00:32 10° NW 23:03:03 19° N 23:05:34 10° NE night (unlit)
09 Oct - 00:37:29 10° NW 00:40:28 29° NNE 00:43:27 10° E night (unlit)
09 Oct - 02:14:03 10° WNW 02:17:19 57° SW 02:20:35 10° SE night (unlit)
09 Oct - 18:57:03 10° SSW 18:59:47 24° SE 19:02:33 10° E daylight
09 Oct - 20:33:04 10° WSW 20:36:18 49° NNW 20:39:34 10° NE visible
09 Oct - 22:10:57 10° WNW 22:13:33 21° N 22:16:08 10° NE visible
09 Oct - 23:48:14 10° NW 23:51:01 24° NNE 23:53:48 10° ENE night (unlit)
